Weather History for Key West NAF, FL

Change the Weather History Date:

Monday, January 16, 2012

  Actual Average Record
Temperature  
Mean Temperature 66 °F -  
Max Temperature 73 °F 74 °F 85 °F (1991)
Min Temperature 60 °F 63 °F 50 °F (1978)
Cooling Degree Days 2    
Growing Degree Days 16 (Base 50)    
Moisture  
Dew Point 53 °F    
Average Humidity 64    
Maximum Humidity 78    
Minimum Humidity 51    
Precipitation  
Precipitation 0.00 in - - ()
Sea Level Pressure  
Sea Level Pressure 30.33 in    
Wind  
Wind Speed 12 mph (NE)    
Max Wind Speed 17 mph    
Max Gust Speed 25 mph    
Visibility 10 miles    
Events      
Averages and records for this station are not official NWS values.
T = Trace of Precipitation, MM = Missing Value Source: NWS Daily Summary

Daily Weather History Graph

Daily Weather History Graph

Search for Another Location

Airport:

Trip Planner

Search our weather history database for the weather conditions in past years. The results will help you decide how hot, cold, wet, or windy it might be!

Date:

Astronomy

Jan. 16, 2012 Rise Set
Actual Time 7:12 AM EST 6:00 PM EST
Civil Twilight 6:48 AM EST 6:24 PM EST
Nautical Twilight 6:20 AM EST 6:52 PM EST
Astronomical Twilight 5:52 AM EST 7:20 PM EST
Moon 12:32 AM EST (1/16) 12:03 PM EST (1/16)
Length of Visible Light 11h 36m
Length of Day
10h 47m
Waning Gibbous, 46% of the Moon is Illuminated
Jan 16
Waning Gibbous
Jan 23
New
Jan 30
First Quarter
Feb 7
Full
Feb 14
Last Quarter

Hourly Weather History & Observations

Time (EST) Temp. Dew Point Humidity Pressure Visibility Wind Dir Wind Speed Gust Speed Precip Events Conditions
12:53 AM 62.1 °F 46.9 °F 58% 30.37 in 10.0 mi NE 10.4 mph 17.3 mph N/A   Clear
1:53 AM 62.1 °F 46.9 °F 58% 30.35 in 10.0 mi NNE 13.8 mph - N/A   Clear
2:53 AM 62.1 °F 48.9 °F 62% 30.34 in 10.0 mi NE 13.8 mph 19.6 mph N/A   Clear
3:53 AM 61.0 °F 46.9 °F 60% 30.33 in 10.0 mi NE 11.5 mph - N/A   Clear
4:37 AM 60.8 °F 48.2 °F 63% 30.33 in 10.0 mi NE 11.5 mph - N/A   Scattered Clouds
4:53 AM 61.0 °F 48.9 °F 64% 30.32 in 10.0 mi NE 11.5 mph - N/A   Partly Cloudy
5:53 AM 62.1 °F 48.9 °F 62% 30.33 in 10.0 mi NE 11.5 mph - N/A   Partly Cloudy
6:53 AM 62.1 °F 51.1 °F 67% 30.34 in 10.0 mi NE 12.7 mph - N/A   Partly Cloudy
7:53 AM 62.1 °F 54.0 °F 75% 30.35 in 10.0 mi NE 11.5 mph - N/A   Clear
8:53 AM 64.9 °F 53.1 °F 65% 30.37 in 10.0 mi NE 11.5 mph - N/A   Clear
9:53 AM 66.0 °F 55.0 °F 68% 30.39 in 10.0 mi NE 12.7 mph - N/A   Clear
10:53 AM 69.1 °F 55.0 °F 61% 30.38 in 10.0 mi NE 12.7 mph - N/A   Clear
11:53 AM 72.0 °F 54.0 °F 53% 30.36 in 10.0 mi ENE 15.0 mph 24.2 mph N/A   Clear
12:53 PM 73.0 °F 54.0 °F 51% 30.32 in 10.0 mi ENE 15.0 mph 21.9 mph N/A   Clear
1:53 PM 72.0 °F 55.0 °F 55% 30.30 in 10.0 mi East 17.3 mph 25.3 mph N/A   Mostly Cloudy
2:53 PM 72.0 °F 55.0 °F 55% 30.28 in 10.0 mi East 16.1 mph 24.2 mph N/A   Mostly Cloudy
3:53 PM 71.1 °F 57.0 °F 61% 30.28 in 10.0 mi East 11.5 mph 20.7 mph N/A   Mostly Cloudy
4:53 PM 71.1 °F 55.9 °F 59% 30.29 in 10.0 mi East 12.7 mph 19.6 mph N/A   Mostly Cloudy
5:53 PM 69.1 °F 55.9 °F 63% 30.29 in 10.0 mi ENE 11.5 mph - N/A   Mostly Cloudy
6:53 PM 66.9 °F 57.0 °F 70% 30.30 in 10.0 mi NE 9.2 mph - N/A   Mostly Cloudy
7:53 PM 66.0 °F 57.9 °F 75% 30.30 in 10.0 mi NE 9.2 mph 16.1 mph N/A   Scattered Clouds
8:53 PM 66.0 °F 57.9 °F 75% 30.31 in 10.0 mi ENE 10.4 mph - N/A   Mostly Cloudy
9:53 PM 66.0 °F 57.9 °F 75% 30.30 in 10.0 mi NE 8.1 mph - N/A   Clear
10:53 PM 66.0 °F 57.9 °F 75% 30.31 in 10.0 mi NE 9.2 mph - N/A   Clear
11:53 PM 64.9 °F 57.9 °F 78% 30.29 in 10.0 mi NE 8.1 mph - N/A   Scattered Clouds